| time (UTC) | temp F | wind direction | speed knots | gust knots | rain 1hr in | rain 24hr in | rain mn in | humidity % | barometer mb |
| 20260505123804 | 36 | 343 | 5.2 | 10.4 | 0.04 | 0.23 | 0.15 | 93 | 1008.0 |
| 20260505122305 | 36 | 351 | 7.8 | 11.3 | 0.04 | 0.22 | 0.14 | 93 | 1008.0 |
| 20260505121804 | 36 | 345 | 6.1 | 12.2 | 0.04 | 0.22 | 0.14 | 93 | 1008.0 |
| 20260505120305 | 37 | 350 | 7.8 | 10.4 | 0.04 | 0.21 | 0.13 | 92 | 1005.6 |
| 20260505115804 | 37 | 341 | 7.0 | 10.4 | 0.04 | 0.21 | 0.13 | 92 | 1005.6 |
| 20260505115305 | 37 | 355 | 6.1 | 13.0 | 0.04 | 0.21 | 0.13 | 92 | 1005.6 |
| 20260505114304 | 37 | 333 | 7.8 | 10.4 | 0.03 | 0.20 | 0.12 | 91 | 1005.6 |
| 20260505113304 | 38 | 356 | 6.1 | 11.3 | 0.02 | 0.18 | 0.10 | 90 | 1005.6 |
| 20260505112804 | 39 | 349 | 7.8 | 13.0 | 0.02 | 0.18 | 0.10 | 90 | 1005.6 |
| 20260505111804 | 39 | 1 | 7.8 | 14.8 | 0.03 | 0.18 | 0.10 | 90 | 1005.6 |
| 20260505111304 | 39 | 8 | 8.7 | 14.8 | 0.03 | 0.18 | 0.10 | 91 | 1005.6 |
| 20260505101304 | 41 | 350 | 4.3 | 10.4 | 0.03 | 0.15 | 0.07 | 91 | 1005.6 |
| 20260505100804 | 41 | 3 | 7.0 | 10.4 | 0.02 | 0.14 | 0.06 | 91 | 1005.6 |
| 20260505095305 | 41 | 4 | 6.1 | 10.4 | 0.01 | 0.13 | 0.05 | 91 | 1005.6 |
| 20260505094304 | 41 | 11 | 6.1 | 10.4 | 0.01 | 0.12 | 0.04 | 91 | 1005.6 |
| 20260505093304 | 42 | 11 | 5.2 | 8.7 | 0.02 | 0.12 | 0.04 | 92 | 1005.6 |
| 20260505090804 | 43 | 2 | 5.2 | 10.4 | 0.04 | 0.12 | 0.04 | 92 | 1005.6 |
| 20260505090304 | 43 | 7 | 4.3 | 10.4 | 0.04 | 0.12 | 0.04 | 92 | 1005.6 |
| 20260505085804 | 43 | 16 | 5.2 | 8.7 | 0.04 | 0.12 | 0.04 | 92 | 1005.6 |
| 20260505085305 | 44 | 6 | 2.6 | 7.8 | 0.04 | 0.12 | 0.04 | 92 | 1005.6 |
| 20260505083803 | 44 | 299 | 1.7 | 5.2 | 0.02 | 0.10 | 0.02 | 91 | 1005.6 |
| 20260505080304 | 48 | 22 | 2.6 | 4.3 | 0.00 | 0.08 | 0.00 | 91 | 1005.6 |
| 20260505074804 | 48 | 0 | 1.7 | 2.6 | 0.00 | 0.08 | 0.00 | 92 | 1005.6 |
| 20260505074304 | 48 | 4 | 1.7 | 2.6 | 0.00 | 0.08 | 0.00 | 90 | 1005.6 |
| 20260505073304 | 48 | 144 | 1.7 | 2.6 | 0.00 | 0.08 | 0.00 | 90 | 1005.6 |
| 20260505072804 | 48 | 144 | 0.0 | 0.0 | 0.00 | 0.08 | 0.00 | 90 | 1005.6 |
| 20260505072305 | 48 | 144 | 0.0 | 0.0 | 0.00 | 0.08 | 0.00 | 90 | 1005.6 |
| 20260505070304 | 48 | 144 | 0.0 | 1.7 | 0.00 | 0.08 | 0.00 | 90 | 1005.6 |
| 20260505065804 | 48 | 144 | 0.0 | 1.7 | 0.00 | 0.08 | 0.00 | 90 | 1005.6 |
| 20260505064304 | 48 | 144 | 0.0 | 0.0 | 0.00 | 0.08 | 0.00 | 89 | 1005.6 |
| 20260505063804 | 48 | 144 | 0.0 | 0.0 | 0.00 | 0.08 | 0.00 | 89 | 1005.6 |
| 20260505063304 | 48 | 144 | 0.0 | 0.0 | 0.00 | 0.08 | 0.00 | 89 | 1005.6 |
| 20260505062304 | 48 | 144 | 0.9 | 2.6 | 0.00 | 0.08 | 0.00 | 89 | 1005.6 |
| 20260505060816 | 48 | 178 | 1.7 | 5.2 | 0.00 | 0.08 | 0.00 | 89 | 1005.6 |
| 20260505055804 | 48 | 198 | 1.7 | 4.3 | 0.00 | 0.08 | 0.08 | 90 | 1005.6 |
| 20260505055304 | 48 | 177 | 2.6 | 4.3 | 0.00 | 0.08 | 0.08 | 90 | 1005.6 |
| 20260505054804 | 48 | 185 | 1.7 | 2.6 | 0.00 | 0.08 | 0.08 | 87 | 1005.6 |
| 20260505053804 | 48 | 183 | 1.7 | 2.6 | 0.00 | 0.08 | 0.08 | 87 | 1005.6 |
| 20260505052304 | 48 | 183 | 0.9 | 2.6 | 0.01 | 0.08 | 0.08 | 87 | 1005.6 |
| 20260505051805 | 48 | 174 | 1.7 | 4.3 | 0.02 | 0.08 | 0.08 | 87 | 1005.6 |
| 20260505050804 | 48 | 219 | 0.0 | 1.7 | 0.02 | 0.08 | 0.08 | 87 | 1005.6 |
| 20260505041305 | 49 | 236 | 1.7 | 2.6 | 0.04 | 0.06 | 0.06 | 87 | 1005.6 |
| 20260505040304 | 49 | 252 | 2.6 | 6.1 | 0.06 | 0.06 | 0.06 | 87 | 1005.6 |
| 20260505035804 | 49 | 260 | 1.7 | 4.3 | 0.06 | 0.06 | 0.06 | 87 | 1005.6 |
| 20260505034804 | 49 | 288 | 3.5 | 7.0 | 0.05 | 0.05 | 0.05 | 85 | 1005.6 |
| 20260505033303 | 49 | 272 | 5.2 | 10.4 | 0.04 | 0.04 | 0.04 | 85 | 1005.6 |
| 20260505032803 | 49 | 279 | 3.5 | 5.2 | 0.03 | 0.03 | 0.03 | 84 | 1005.6 |
| 20260505032304 | 50 | 280 | 2.6 | 7.8 | 0.03 | 0.03 | 0.03 | 81 | 1005.6 |
| 20260505031804 | 50 | 286 | 3.5 | 10.4 | 0.02 | 0.02 | 0.02 | 80 | 1005.6 |
| 20260505030804 | 51 | 331 | 2.6 | 5.2 | 0.01 | 0.01 | 0.01 | 76 | 1010.4 |
| 20260505025803 | 53 | 339 | 3.5 | 6.1 | 0.00 | 0.00 | 0.00 | 68 | 1010.4 |
| 20260505025305 | 53 | 341 | 4.3 | 10.4 | 0.00 | 0.00 | 0.00 | 67 | 1010.4 |
| 20260505024804 | 53 | 358 | 5.2 | 7.0 | 0.00 | 0.00 | 0.00 | 64 | 1010.4 |
| 20260505021804 | 54 | 310 | 4.3 | 7.0 | 0.00 | 0.00 | 0.00 | 63 | 1010.4 |
| 20260505015304 | 54 | 329 | 6.1 | 12.2 | 0.00 | 0.00 | 0.00 | 62 | 1010.4 |
| 20260505014804 | 55 | 317 | 7.8 | 12.2 | 0.00 | 0.00 | 0.00 | 60 | 1010.4 |
| 20260505013804 | 57 | 354 | 3.5 | 7.8 | 0.00 | 0.00 | 0.00 | 53 | 1010.4 |
| 20260505010804 | 58 | 30 | 0.0 | 1.7 | 0.00 | 0.00 | 0.00 | 49 | 1010.4 |
| 20260505005304 | 59 | 5 | 0.9 | 4.3 | 0.00 | 0.00 | 0.00 | 49 | 1010.4 |
| 20260505004804 | 59 | 9 | 0.9 | 4.3 | 0.00 | 0.00 | 0.00 | 48 | 1010.4 |
| 20260505004303 | 59 | 35 | 1.7 | 6.1 | 0.00 | 0.00 | 0.00 | 47 | 1010.4 |
| 20260505003804 | 58 | 359 | 5.2 | 10.4 | 0.00 | 0.00 | 0.00 | 47 | 1010.4 |
| 20260505003304 | 58 | 354 | 7.0 | 10.4 | 0.00 | 0.00 | 0.00 | 48 | 1010.4 |
| 20260505002804 | 59 | 349 | 6.1 | 11.3 | 0.00 | 0.00 | 0.00 | 48 | 1010.4 |
| 20260505002304 | 59 | 338 | 6.1 | 14.8 | 0.00 | 0.00 | 0.00 | 47 | 1010.4 |
| 20260505001303 | 61 | 343 | 8.7 | 13.0 | 0.00 | 0.00 | 0.00 | 42 | 1010.4 |
| 20260505000803 | 61 | 335 | 5.2 | 12.2 | 0.00 | 0.00 | 0.00 | 39 | 1010.4 |
| 20260505000304 | 61 | 347 | 6.1 | 11.3 | 0.00 | 0.00 | 0.00 | 38 | 1010.4 |
| 20260504235804 | 62 | 357 | 6.1 | 14.8 | 0.00 | 0.00 | 0.00 | 38 | 1010.4 |
| 20260504233804 | 62 | 325 | 7.8 | 11.3 | 0.00 | 0.00 | 0.00 | 40 | 1010.4 |
| 20260504233304 | 62 | 354 | 7.8 | 12.2 | 0.00 | 0.00 | 0.00 | 41 | 1010.4 |
| 20260504232804 | 63 | 10 | 4.3 | 7.0 | 0.00 | 0.00 | 0.00 | 37 | 1010.4 |
| 20260504232304 | 62 | 211 | 1.7 | 4.3 | 0.00 | 0.00 | 0.00 | 37 | 1010.4 |
| 20260504230804 | 62 | 92 | 5.2 | 11.3 | 0.00 | 0.00 | 0.00 | 38 | 1010.4 |
| 20260504230304 | 63 | 258 | 8.7 | 18.2 | 0.00 | 0.00 | 0.00 | 39 | 1010.4 |
| 20260504224304 | 64 | 345 | 7.0 | 10.4 | 0.00 | 0.00 | 0.00 | 32 | 1010.4 |
| 20260504223304 | 64 | 355 | 7.8 | 13.9 | 0.00 | 0.00 | 0.00 | 32 | 1010.4 |
| 20260504222804 | 64 | 340 | 7.0 | 17.4 | 0.00 | 0.00 | 0.00 | 32 | 1010.4 |
| 20260504221803 | 65 | 3 | 8.7 | 14.8 | 0.00 | 0.00 | 0.00 | 31 | 1010.4 |
| 20260504220304 | 66 | 6 | 10.4 | 17.4 | 0.00 | 0.00 | 0.00 | 30 | 1010.4 |
| 20260504215804 | 67 | 355 | 9.6 | 22.6 | 0.00 | 0.00 | 0.00 | 29 | 1010.4 |
| 20260504214804 | 68 | 16 | 13.9 | 20.9 | 0.00 | 0.00 | 0.00 | 29 | 1010.4 |
| 20260504214304 | 68 | 5 | 11.3 | 22.6 | 0.00 | 0.00 | 0.00 | 30 | 1010.4 |
| 20260504212804 | 68 | 7 | 13.0 | 21.7 | 0.00 | 0.00 | 0.00 | 29 | 1010.4 |
| 20260504210804 | 67 | 350 | 10.4 | 17.4 | 0.00 | 0.00 | 0.00 | 27 | 1010.4 |
| 20260504210304 | 68 | 332 | 5.2 | 8.7 | 0.00 | 0.00 | 0.00 | 25 | 1010.4 |
| 20260504205803 | 68 | 252 | 3.5 | 7.8 | 0.00 | 0.00 | 0.00 | 24 | 1010.4 |
| 20260504205304 | 67 | 255 | 3.5 | 7.0 | 0.00 | 0.00 | 0.00 | 24 | 1010.4 |
| 20260504204803 | 68 | 223 | 4.3 | 7.8 | 0.00 | 0.00 | 0.00 | 23 | 1010.4 |
| 20260504203303 | 67 | 164 | 4.3 | 6.1 | 0.00 | 0.00 | 0.00 | 23 | 1010.4 |
| 20260504202804 | 67 | 216 | 5.2 | 10.4 | 0.00 | 0.00 | 0.00 | 24 | 1010.4 |
| 20260504201303 | 66 | 178 | 7.0 | 17.4 | 0.00 | 0.00 | 0.00 | 27 | 1010.4 |
| 20260504200804 | 66 | 212 | 11.3 | 21.7 | 0.00 | 0.00 | 0.00 | 26 | 1010.4 |
| 20260504194803 | 71 | 219 | 2.6 | 5.2 | 0.00 | 0.00 | 0.00 | 18 | 1010.4 |
| 20260504194303 | 71 | 346 | 3.5 | 6.1 | 0.00 | 0.00 | 0.00 | 18 | 1010.4 |
| 20260504193304 | 72 | 353 | 4.3 | 7.0 | 0.00 | 0.00 | 0.00 | 19 | 1010.4 |
| 20260504191804 | 72 | 287 | 5.2 | 11.3 | 0.00 | 0.00 | 0.00 | 19 | 1010.4 |
| 20260504191304 | 72 | 355 | 3.5 | 7.0 | 0.00 | 0.00 | 0.00 | 20 | 1010.4 |
| 20260504184803 | 72 | 314 | 5.2 | 10.4 | 0.00 | 0.00 | 0.00 | 20 | 1010.4 |
| 20260504182803 | 75 | 307 | 5.2 | 12.2 | 0.00 | 0.00 | 0.00 | 18 | 1010.4 |
| 20260504182304 | 76 | 329 | 6.1 | 13.0 | 0.00 | 0.00 | 0.00 | 20 | 1010.4 |
| 20260504181804 | 75 | 279 | 7.8 | 12.2 | 0.00 | 0.00 | 0.00 | 21 | 1010.4 |
| 20260504175804 | 73 | 276 | 8.7 | 15.6 | 0.00 | 0.00 | 0.00 | 22 | 1010.4 |
| 20260504175304 | 72 | 333 | 8.7 | 17.4 | 0.00 | 0.00 | 0.00 | 23 | 1010.4 |
| 20260504173304 | 71 | 302 | 6.1 | 13.0 | 0.00 | 0.00 | 0.00 | 24 | 1010.4 |
| 20260504172803 | 72 | 319 | 7.0 | 15.6 | 0.00 | 0.00 | 0.00 | 23 | 1010.4 |
| 20260504170803 | 71 | 286 | 7.8 | 17.4 | 0.00 | 0.00 | 0.00 | 24 | 1010.4 |
| 20260504160303 | 67 | 276 | 8.7 | 15.6 | 0.00 | 0.00 | 0.00 | 26 | 1010.4 |